• In Hungary
  • List of Countries
  • For 7 days
  • Water Temperature
  • Satellite Maps
  • Weather Map
  • News
  • Weather Widgets
  • user-avatar
    Login

    Hourly Weather Akalajon

    Today, 18 December, Monday

    Time Temperature Precipitation Wind Pressure Humidity
    00:00 +27°C° 0.4 mm 1 mps 754 mmHg 92%
    01:00 +27°C° 0.4 mm 1 mps 754 mmHg 93%
    02:00 +27°C° 0.3 mm 1 mps 754 mmHg 94%
    03:00 +27°C° 0.3 mm 1 mps 754 mmHg 94%
    04:00 +26°C° 0.3 mm 1 mps 754 mmHg 95%
    05:00 +26°C° 0.1 mm 1 mps 754 mmHg 95%
    06:00 +26°C° 0.1 mm 1 mps 754 mmHg 95%
    07:00 +27°C° 0.1 mm 1 mps 754 mmHg 94%
    08:00 +28°C° 0 mm 1 mps 755 mmHg 89%
    09:00 +29°C° 0 mm 1 mps 755 mmHg 83%
    10:00 +30°C° 0 mm 1 mps 755 mmHg 78%
    11:00 +31°C° 0.2 mm 2 mps 755 mmHg 73%
    12:00 +32°C° 0.2 mm 2 mps 754 mmHg 68%
    13:00 +34°C° 0.2 mm 2 mps 754 mmHg 63%
    14:00 +34°C° 0.5 mm 2 mps 753 mmHg 65%
    15:00 +33°C° 0.5 mm 3 mps 752 mmHg 68%
    16:00 +33°C° 0.5 mm 3 mps 752 mmHg 70%
    17:00 +30°C° 0.3 mm 2 mps 752 mmHg 77%
    18:00 +29°C° 0.3 mm 2 mps 752 mmHg 83%
    19:00 +27°C° 0.3 mm 2 mps 752 mmHg 90%
    20:00 +27°C° 0 mm 2 mps 753 mmHg 91%
    21:00 +27°C° 0 mm 2 mps 754 mmHg 93%
    22:00 +27°C° 0 mm 1 mps 754 mmHg 94%
    23:00 +26°C° 0 mm 1 mps 754 mmHg 95%

    Tomorrow, 19 December, Tuesday

    Time Temperature Precipitation Wind Pressure Humidity
    00:00 +26°C° 0 mm 1 mps 754 mmHg 96%
    01:00 +26°C° 0 mm 1 mps 754 mmHg 96%
    02:00 +26°C° 0 mm 1 mps 753 mmHg 96%
    03:00 +26°C° 0 mm 1 mps 753 mmHg 97%
    04:00 +26°C° 0 mm 1 mps 753 mmHg 97%
    05:00 +26°C° 0 mm 1 mps 753 mmHg 96%
    06:00 +26°C° 0 mm 1 mps 753 mmHg 95%
    07:00 +26°C° 0 mm 1 mps 754 mmHg 94%
    08:00 +28°C° 0.1 mm 1 mps 754 mmHg 87%
    09:00 +29°C° 0.1 mm 1 mps 754 mmHg 80%
    10:00 +31°C° 0.1 mm 1 mps 755 mmHg 73%
    11:00 +31°C° 0.1 mm 2 mps 754 mmHg 70%
    12:00 +32°C° 0.1 mm 2 mps 754 mmHg 67%
    13:00 +34°C° 0.1 mm 2 mps 753 mmHg 64%
    14:00 +32°C° 0.6 mm 2 mps 752 mmHg 67%
    15:00 +32°C° 0.6 mm 2 mps 752 mmHg 69%
    16:00 +31°C° 0.6 mm 3 mps 751 mmHg 72%
    17:00 +30°C° 0.1 mm 2 mps 752 mmHg 78%
    18:00 +29°C° 0.1 mm 2 mps 752 mmHg 83%
    19:00 +28°C° 0.1 mm 2 mps 753 mmHg 89%
    20:00 +27°C° 0 mm 2 mps 753 mmHg 90%
    21:00 +27°C° 0 mm 1 mps 754 mmHg 92%
    22:00 +27°C° 0 mm 1 mps 754 mmHg 94%
    23:00 +26°C° 0 mm 1 mps 754 mmHg 94%

    Day after tomorrow, 20 December, Wednesday

    Time Temperature Precipitation Wind Pressure Humidity
    00:00 +26°C° 0 mm 1 mps 754 mmHg 95%
    01:00 +26°C° 0 mm 1 mps 754 mmHg 96%
    02:00 +26°C° 0 mm 1 mps 753 mmHg 96%
    03:00 +26°C° 0 mm 1 mps 753 mmHg 96%
    04:00 +26°C° 0 mm 1 mps 752 mmHg 96%
    05:00 +26°C° 0 mm 1 mps 753 mmHg 95%
    06:00 +26°C° 0 mm 1 mps 753 mmHg 94%
    07:00 +26°C° 0 mm 1 mps 753 mmHg 93%
    08:00 +28°C° 0 mm 1 mps 754 mmHg 85%
    09:00 +30°C° 0 mm 1 mps 754 mmHg 76%
    10:00 +32°C° 0 mm 1 mps 755 mmHg 68%
    11:00 +32°C° 0 mm 1 mps 754 mmHg 66%
    12:00 +34°C° 0 mm 2 mps 753 mmHg 63%
    13:00 +34°C° 0 mm 2 mps 753 mmHg 61%
    14:00 +34°C° 0.1 mm 3 mps 752 mmHg 63%
    15:00 +34°C° 0.1 mm 3 mps 751 mmHg 64%
    16:00 +33°C° 0.1 mm 3 mps 751 mmHg 66%
    17:00 +31°C° 0.1 mm 3 mps 751 mmHg 73%
    18:00 +29°C° 0.1 mm 2 mps 752 mmHg 79%
    19:00 +28°C° 0.1 mm 2 mps 752 mmHg 86%
    20:00 +28°C° 0 mm 1 mps 753 mmHg 88%
    21:00 +27°C° 0 mm 1 mps 754 mmHg 91%
    22:00 +27°C° 0 mm 1 mps 754 mmHg 93%
    23:00 +27°C° 0 mm 1 mps 754 mmHg 94%

    21 December, Thursday

    Time Temperature Precipitation Wind Pressure Humidity
    00:00 +26°C° 0 mm 1 mps 754 mmHg 94%
    01:00 +26°C° 0 mm 2 mps 754 mmHg 95%
    02:00 +26°C° 0 mm 2 mps 753 mmHg 95%
    03:00 +26°C° 0 mm 2 mps 753 mmHg 95%
    04:00 +26°C° 0 mm 2 mps 753 mmHg 95%
    05:00 +26°C° 0 mm 1 mps 753 mmHg 94%
    06:00 +26°C° 0 mm 1 mps 754 mmHg 93%
    07:00 +27°C° 0 mm 1 mps 754 mmHg 92%
    08:00 +29°C° 0 mm 1 mps 755 mmHg 83%
    09:00 +31°C° 0 mm 1 mps 755 mmHg 74%
    10:00 +33°C° 0 mm 1 mps 755 mmHg 64%
    11:00 +34°C° 0 mm 1 mps 754 mmHg 60%
    12:00 +36°C° 0 mm 2 mps 753 mmHg 56%
    13:00 +37°C° 0 mm 2 mps 753 mmHg 52%
    14:00 +36°C° 0.2 mm 2 mps 752 mmHg 57%
    15:00 +35°C° 0.2 mm 2 mps 751 mmHg 61%
    16:00 +33°C° 0.2 mm 3 mps 751 mmHg 65%
    17:00 +31°C° 0.4 mm 2 mps 751 mmHg 72%
    18:00 +30°C° 0.4 mm 2 mps 752 mmHg 79%
    19:00 +28°C° 0.4 mm 2 mps 753 mmHg 86%
    20:00 +28°C° 0.1 mm 2 mps 753 mmHg 88%
    21:00 +27°C° 0.1 mm 2 mps 754 mmHg 90%
    22:00 +27°C° 0.1 mm 2 mps 755 mmHg 92%
    23:00 +27°C° 0 mm 2 mps 754 mmHg 93%

    22 December, Friday

    Time Temperature Precipitation Wind Pressure Humidity
    00:00 +27°C° 0 mm 2 mps 754 mmHg 94%
    01:00 +26°C° 0 mm 2 mps 754 mmHg 95%
    02:00 +26°C° 0 mm 2 mps 754 mmHg 95%
    03:00 +26°C° 0 mm 2 mps 754 mmHg 95%
    04:00 +26°C° 0 mm 2 mps 753 mmHg 95%
    05:00 +26°C° 0 mm 2 mps 754 mmHg 94%
    06:00 +26°C° 0 mm 2 mps 754 mmHg 93%
    07:00 +26°C° 0 mm 1 mps 755 mmHg 93%
    08:00 +28°C° 0 mm 1 mps 755 mmHg 85%
    09:00 +29°C° 0 mm 2 mps 755 mmHg 78%
    10:00 +31°C° 0 mm 2 mps 756 mmHg 70%
    11:00 +32°C° 0.3 mm 2 mps 755 mmHg 66%
    12:00 +34°C° 0.3 mm 2 mps 754 mmHg 61%
    13:00 +36°C° 0.3 mm 2 mps 753 mmHg 57%
    14:00 +35°C° 0.8 mm 2 mps 752 mmHg 61%
    15:00 +34°C° 0.8 mm 2 mps 752 mmHg 66%
    16:00 +32°C° 0.8 mm 2 mps 751 mmHg 70%
    17:00 +30°C° 0.8 mm 2 mps 752 mmHg 77%
    18:00 +29°C° 0.8 mm 2 mps 752 mmHg 83%
    19:00 +28°C° 0.8 mm 1 mps 753 mmHg 89%
    20:00 +27°C° 0.1 mm 1 mps 753 mmHg 90%
    21:00 +27°C° 0.1 mm 1 mps 754 mmHg 92%
    22:00 +27°C° 0.1 mm 1 mps 754 mmHg 93%
    23:00 +26°C° 0 mm 1 mps 754 mmHg 94%

    23 December, Saturday

    Time Temperature Precipitation Wind Pressure Humidity
    00:00 +26°C° 0 mm 1 mps 753 mmHg 94%
    01:00 +26°C° 0 mm 1 mps 753 mmHg 95%
    02:00 +26°C° 0 mm 1 mps 753 mmHg 96%
    03:00 +26°C° 0 mm 1 mps 753 mmHg 96%
    04:00 +26°C° 0 mm 1 mps 752 mmHg 97%
    05:00 +26°C° 0 mm 1 mps 753 mmHg 96%
    06:00 +26°C° 0 mm 1 mps 753 mmHg 95%
    07:00 +26°C° 0 mm 1 mps 754 mmHg 95%
    08:00 +28°C° 0 mm 1 mps 754 mmHg 88%
    09:00 +29°C° 0 mm 1 mps 754 mmHg 80%
    10:00 +31°C° 0 mm 1 mps 754 mmHg 73%
    11:00 +32°C° 0.3 mm 2 mps 753 mmHg 69%
    12:00 +34°C° 0.3 mm 2 mps 753 mmHg 65%
    13:00 +35°C° 0.3 mm 2 mps 752 mmHg 62%
    14:00 +34°C° 0.9 mm 2 mps 751 mmHg 65%
    15:00 +33°C° 0.9 mm 3 mps 751 mmHg 69%
    16:00 +31°C° 0.9 mm 3 mps 750 mmHg 73%
    17:00 +30°C° 0.4 mm 2 mps 751 mmHg 79%
    18:00 +29°C° 0.4 mm 2 mps 751 mmHg 84%
    19:00 +28°C° 0.4 mm 2 mps 752 mmHg 89%
    20:00 +27°C° 0.5 mm 2 mps 752 mmHg 90%
    21:00 +27°C° 0.5 mm 1 mps 753 mmHg 91%
    22:00 +27°C° 0.5 mm 1 mps 753 mmHg 92%
    23:00 +27°C° 0.3 mm 1 mps 753 mmHg 92%
    Show more